Regional Weather Roundup
Issued by NWS Sterling, VA

Home | Current Version | Previous Version | Text Only | Print | Product List | Glossary Off
Versions: 1 2 3 4 5 6 7 8 9 10 11 12 13 14 15 16 17 18 19 20 21 22 23 24 25 26 27 28 29 30 31 32 33 34 35 36 37 38 39 40 41 42 43 44 45 46 47 48 49 50

000
ASUS41 KLWX 010410
RWRLWX

REGIONAL WEATHER ROUNDUP
NATIONAL WEATHER SERVICE BALTIMORE MD/WASHINGTON DC
1200 AM EDT TUE SEP 01 2015

Note: "FAIR" indicates few or no clouds below 12,000 feet
with no significant weather and/or obstructions to visibility.
 TC=TEMPERATURE CELSIUS

 * =Non NWS site. Station does not report precipitation (e.g. rain,
    snow, etc.), thunder, or fog.

DCZ001-MDZ009-015-VAZ040>042-051-053>054-010500-
WASHINGTON METRO

CITY           SKY/WX    TMP DP  RH WIND       PRES   REMARKS
WASHINGTON NAT PTCLDY    76  71  85 S7        30.07S
DULLES         CLEAR     73  67  81 S6        30.07S
ANDREWS AFB    CLEAR     74  69  85 SW8       30.06S
FT BELVOIR     CLEAR     71  68  90 CALM      30.06F
QUANTICO       CLEAR     76  69  79 SW7       30.07F
COLLEGE PARK*  CLEAR     77  70  78 S3        30.06S
LEESBURG*      CLEAR     73  70  88 SW9       30.08R
MANASSAS*      CLEAR     72  70  94 CALM      30.07S
GAITHERSBURG*  CLEAR     72  63  73 CALM      30.11S

$$

MDZ006>007-011-014-010500-
BALTIMORE METRO

CITY           SKY/WX    TMP DP  RH WIND       PRES   REMARKS
BWI AIRPORT    CLEAR     74  66  76 SW5       30.05S
MD SCIENCE CTR   N/A     78  64  61 MISG      30.06S
ANNAPOLIS      CLEAR     76  70  82 VRB3      30.05S
FORT MEADE*    CLEAR     66  64  94 CALM      30.08S

$$

MDZ012-015-019>023-010500-
MARYLAND EASTERN SHORE

CITY           SKY/WX    TMP DP  RH WIND       PRES   REMARKS
OCEAN CITY     CLEAR     74  68  81 W7        30.07S
SALISBURY      CLEAR     70  68  93 CALM      30.06F
BAY BRIDGE AP*   N/A     75  70  83 SW5       30.06S
CAMBRIDGE*     CLEAR     73  70  88 CALM      30.06F

$$

MDZ017>025-010500-
SOUTHERN MARYLAND

CITY           SKY/WX    TMP DP  RH WIND       PRES   REMARKS
PATUXENT RIVER CLEAR     72  68  87 SW6       30.06F
ST INIGOES     CLEAR     73  69  87 SW6       30.06F
LEONARDTOWN*   NOT AVBL

$$

MDZ003>005-010500-
NORTH CENTRAL MARYLAND

CITY           SKY/WX    TMP DP  RH WIND       PRES   REMARKS
FREDERICK*     CLEAR     70  68  94 CALM      30.09R
HAGERSTOWN APT CLEAR     75  66  73 S6        30.07S
WESTMINSTER*   CLEAR     73  68  83 CALM      30.08S

$$

MDZ501>502-010500-
WESTERN MARYLAND

CITY           SKY/WX    TMP DP  RH WIND       PRES   REMARKS
OAKLAND*       CLEAR     64  61  88 SW5       30.21R
CUMBERLAND*    CLEAR     72  68  88 N3        30.12S

$$

VAZ025>031-010500-
SHENANDOAH VALLEY

CITY           SKY/WX    TMP DP  RH WIND       PRES   REMARKS
WINCHESTER*    CLEAR     70  63  78 CALM      30.08S
FRONT ROYAL*   FAIR      70  64  83 S3        30.07S
LURAY*         FAIR      68  61  77 CALM      30.10S
NEW MARKET*    FAIR      66  64  92 CALM      30.10R
STAUNTON*      CLEAR     67  62  84 CALM      30.13S
WAYNESBORO*    FAIR      70  63  78 CALM      30.13S

$$

WVZ021-048>050-054>055-010500-
EASTERN WEST VIRGINIA PANHANDLE

CITY           SKY/WX    TMP DP  RH WIND       PRES   REMARKS
MARTINSBURG    CLEAR     70  64  81 CALM      30.07S
PETERSBURG*    CLEAR     67  67  99 CALM      30.12S FOG

$$

VAZ036>039-050-010500-
CENTRAL FOOTHILLS

CITY           SKY/WX    TMP DP  RH WIND       PRES   REMARKS
CHARLOTTESVILL CLEAR     72  67  84 S7        30.09F
CULPEPER*      CLEAR     71  68  90 S3        30.08F
ORANGE*        CLEAR     70  68  94 CALM      30.10F
GORDONSVILLE*  FAIR      68  67  96 CALM      30.08F
WARRENTON*     FAIR      72  70  93 CALM      30.07S

$$

VAZ055>057-010500-
NORTH AND CENTRAL PIEDMONT

CITY           SKY/WX    TMP DP  RH WIND       PRES   REMARKS
FREDERICKSBRG* CLEAR     75  71  87 CALM      30.07S
STAFFORD*      CLEAR     72  68  87 CALM      30.11S

$$

NCZ024-NYZ072-PAZ021-071-VAZ022-071-010500-
OTHER REGIONAL OBSERVATIONS

CITY           SKY/WX    TMP DP  RH WIND       PRES   REMARKS
NEW YORK CITY  PTCLDY    82  65  56 W7        30.02R
PHILADELPHIA   CLEAR     78  67  68 SW9       30.04S
PITTSBURGH     CLEAR     74  65  73 CALM      30.10S
ROANOKE        PTCLDY    70  64  81 CALM      30.15R
RICHMOND       CLOUDY    73  69  87 SW6       30.08F
RALEIGH        PTCLDY    69  68  96 CALM      30.10S

$$

ANZ530>537-010500-
MARINE OBSERVATIONS

STATION/POSITION TIME  TEMP    WIND        PRES
                       AIR SEA DIR/SP/G
                 (UTC) (F)     (DEG/KT/KT) (MB)
THOMAS PT LIGHT  NOT AVBL
BALT KEY BRIDGE  0300   78     200/  7/  8 1017.5R
COVE POINT       0300   75     250/ 11/ 14 1018.8S
LEWISETTA        0300   74 79  260/  7/  8 1018.0S
SOLOMONS ISLAND  0300      80                N/A
PINEY POINT      0305          250/  6/ 10   N/A

$$



USA.gov is the U.S. government's official web portal to all federal, state and local government web resources and services.